Home   Weather   Izmir   Past weeks

Flag for Turkey Past Weather in Izmir, Turkey — Yesterday and Last 2 Weeks

Now
55 °F

Sunny.


Feels Like: 50 °F
Forecast: 29 / 55 °F
Wind: 22 mph from North

Location: Izmir / Adnan Menderes

Current Time: Dec 5, 2016 at 3:48:41 pm

Latest Report: Dec 5, 2016 at 2:50 pm


Visibility: 10 mi

Pressure: 30.30 "Hg

Humidity: 38%

Dew Point: 30 °F

Location of IzmirLocation

Past Weather in Izmir — Graph

°F

Izmir Temperature Yesterday

Maximum temperature yesterday: 57 °F (at 12:50 pm)
Minimum temperature yesterday: 48 °F (at 4:20 am)
Average temperature yesterday: 52 °F

High & Low Weather Summary for the Past Weeks

 TemperatureHumidityPressure
High66 °F (Nov 26, 3:50 pm)100% (Nov 27, 8:50 am)30.33 "Hg (Nov 27, 8:50 am)
Low32 °F (Dec 2, 6:50 am)32% (Nov 20, 2:20 pm)29.77 "Hg (Nov 29, 3:20 am)
Average49 °F72%30.07 "Hg
* Reported Nov 20 2:20 pm — Dec 5 2:20 pm, Izmir, Weather by CustomWeather, © 2016

Note: Actual official high and low records may vary slightly from our data, if they occured in-between our weather recording intervals... More about our weather records

Advertising

Izmir Weather History for the Previous 24 Hours

Scroll right to see more
 ConditionsComfort  
Time TempWeatherWind HumidityBarometerVisibility
2:20 pm
Mon, Dec 5
55 °FSunny.21 mph36%30.30 "Hg10 mi
1:50 pm55 °FSunny.20 mph36%30.30 "Hg10 mi
1:20 pm54 °FSunny.20 mph38%30.30 "Hg10 mi
12:50 pm54 °FSunny.21 mph35%30.33 "Hg10 mi
12:20 pm54 °FSunny.18 mph35%30.33 "Hg10 mi
11:50 am54 °FSunny.15 mph35%30.33 "Hg10 mi
11:20 am54 °FSunny.17 mph38%30.33 "Hg10 mi
10:50 am52 °FSunny.13 mph41%30.33 "Hg10 mi
10:20 am52 °FSunny.14 mph41%30.33 "Hg10 mi
9:50 am50 °FSunny.16 mph43%30.33 "Hg10 mi
9:20 am46 °FSunny.9 mph50%30.33 "Hg10 mi
8:50 am46 °FScattered clouds.10 mph53%30.30 "HgN/A
8:20 am46 °FSunny.15 mph53%30.30 "Hg10 mi
7:50 am46 °FClear.15 mph53%30.30 "Hg10 mi
7:20 am46 °FClear.10 mph53%30.30 "Hg10 mi
6:50 am46 °FClear.12 mph57%30.27 "Hg10 mi
6:20 am46 °FClear.14 mph57%30.27 "Hg10 mi
5:50 am46 °FClear.15 mph62%30.27 "Hg10 mi
5:20 am46 °FClear.12 mph62%30.27 "Hg10 mi
4:50 am46 °FClear.14 mph62%30.27 "Hg10 mi
4:20 am48 °FClear.14 mph62%30.27 "Hg10 mi
3:50 am46 °FClear.13 mph62%30.27 "Hg10 mi
3:20 am48 °FClear.13 mph58%30.27 "Hg10 mi
2:50 am48 °FClear.14 mph62%30.27 "Hg10 mi
2:20 am48 °FClear.16 mph58%30.27 "Hg10 mi
1:50 am50 °FClear.16 mph58%30.27 "Hg10 mi
1:20 am50 °FClear.16 mph62%30.27 "Hg10 mi
12:50 am50 °FClear.16 mph67%30.27 "Hg10 mi
12:20 am50 °FClear.16 mph71%30.27 "Hg10 mi
11:50 pm
Sun, Dec 4
52 °FPassing clouds.13 mph72%30.27 "HgN/A
11:20 pm50 °FPassing clouds.13 mph71%30.27 "HgN/A
10:50 pm52 °FPassing clouds.14 mph67%30.27 "HgN/A
10:20 pm52 °FPassing clouds.13 mph62%30.27 "HgN/A
9:50 pm50 °FPartly cloudy.12 mph71%30.24 "HgN/A
9:20 pm50 °FPartly cloudy.12 mph71%30.24 "HgN/A
8:50 pm52 °FPartly cloudy.12 mph67%30.24 "HgN/A
8:20 pm52 °FPartly cloudy.14 mph67%30.24 "HgN/A
7:50 pm52 °FPartly cloudy.13 mph67%30.24 "HgN/A
7:20 pm54 °FPartly cloudy.15 mph67%30.24 "HgN/A
6:50 pm54 °FPartly cloudy.14 mph67%30.24 "HgN/A
6:20 pm54 °FPartly cloudy.14 mph67%30.24 "HgN/A
5:50 pm54 °FBroken clouds.15 mph63%30.24 "HgN/A
5:20 pm55 °FBroken clouds.16 mph59%30.24 "HgN/A
4:50 pm55 °FBroken clouds.14 mph63%30.24 "HgN/A
4:20 pm55 °FBroken clouds.14 mph63%30.24 "Hg5 mi
3:50 pm55 °FBroken clouds.16 mph59%30.24 "Hg5 mi
3:20 pm55 °FBroken clouds.14 mph63%30.24 "Hg5 mi
Weather by CustomWeather, © 2016

See weather overviewHow to use our weather pages